Theta_e
313 313 311 310 308 309 309 310 307 310 310 314 317 318 322 324 326 331 338 338 339 337 339 344 354 363 366 365 367 368 364 367 370 373 374 377 375 374 377 378 373 373 374 370
311 312 310 307 310 310 310 311 310 311 311 318 320 321 322 324 324 329 338 338 339 344 348 346 350 360 366 367 371 365 362 367 376 377 376 376 379 378 380 376 374 374 376 373
307 312 309 306 309 310 311 312 312 308 313 318 318 322 323 325 327 329 339 340 345 345 343 345 350 363 365 369 368 365 364 370 374 375 376 378 377 376 374 374 374 370 370 369
309 311 301 311 317 315 313 314 315 315 317 319 322 327 328 329 329 331 335 341 350 345 344 348 351 357 368 366 367 368 368 371 374 370 369 373 376 374 377 375 375 375 372 372
307 307 311 312 315 314 313 312 317 316 317 322 327 329 331 337 333 334 337 344 346 347 346 354 356 365 367 363 366 363 362 367 371 371 372 373 373 375 376 373 373 373 372 370
311 305 303 313 318 322 319 310 325 326 326 327 330 322 333 343 343 338 341 345 347 347 347 349 355 359 361 360 361 363 365 367 371 373 375 375 378 378 375 373 366 364 363 365
311 307 312 319 322 322 309 318 329 330 331 332 329 335 339 347 350 346 343 345 348 348 346 351 356 359 358 356 355 358 359 367 372 377 379 380 378 376 375 372 370 369 364 360
312 309 306 325 323 315 329 333 332 334 336 334 336 337 341 349 352 350 343 345 348 348 348 353 359 363 356 357 361 365 366 371 377 380 372 370 376 375 375 373 370 364 359 355
313 313 329 329 330 333 332 333 333 337 338 337 336 336 342 349 352 349 346 344 348 349 350 352 358 360 356 363 366 371 372 376 376 377 375 373 375 373 366 369 357 357 352 348
316 325 327 330 333 334 334 333 333 335 337 341 335 338 344 351 353 349 346 343 347 349 349 352 362 360 363 368 371 373 373 372 373 374 372 372 365 363 358 354 351 349 349 347
323 327 328 330 329 331 332 332 332 334 336 339 338 339 345 349 354 356 354 350 350 350 351 356 359 362 362 364 367 366 371 368 371 367 366 359 335 337 349 329 326 348 349 348
315 327 327 328 328 330 331 331 333 333 334 337 341 338 345 349 355 356 356 360 356 355 354 354 357 360 365 367 370 369 367 368 362 360 359 346 338 327 307 307 306 308 312 331
326 328 328 327 328 327 331 332 333 334 336 336 339 341 346 350 355 346 356 359 361 359 359 361 364 361 365 368 365 365 367 363 364 354 355 352 347 338 331 318 306 303 303 304
331 329 325 325 324 326 325 327 330 337 337 337 338 342 344 351 353 357 355 358 360 360 360 360 357 355 356 356 354 352 359 327 355 358 347 348 346 341 339 338 334 325 308 311
328 327 327 328 327 327 325 326 324 329 337 337 339 340 343 345 351 353 356 357 357 357 359 358 356 356 359 355 354 348 342 347 343 345 349 344 347 341 338 339 335 328 318 313
326 324 323 322 323 323 323 323 324 324 328 338 340 342 343 344 345 347 352 355 355 353 355 355 355 356 356 356 347 336 335 334 340 346 347 345 344 341 341 341 337 329 325 324
318 318 320 320 321 321 322 324 323 323 326 330 338 345 348 347 345 347 351 355 357 357 357 357 353 355 354 348 339 335 336 335 333 346 344 345 343 342 341 339 337 333 333 329
320 320 320 320 320 320 321 322 322 324 325 331 340 346 347 348 346 347 349 356 357 356 357 360 353 346 353 352 345 344 344 339 336 344 344 343 343 343 342 340 338 336 334 322
328 326 325 322 320 320 319 320 321 323 328 332 339 344 347 348 350 348 349 347 352 355 356 360 340 341 345 348 345 345 344 344 344 345 343 335 341 342 340 339 338 336 333 327
330 332 332 332 333 328 323 323 322 323 325 329 341 347 347 348 350 352 350 348 348 349 357 357 353 352 350 349 340 348 348 344 343 344 343 342 340 339 339 327 336 334 330 325
333 333 334 332 334 335 328 328 327 326 327 331 343 347 347 349 350 351 349 346 350 351 353 341 351 351 350 347 346 347 347 345 341 342 340 339 338 339 338 337 334 331 328 325
329 332 335 335 332 333 332 331 332 332 331 334 343 348 348 348 349 349 349 348 348 326 349 353 355 340 344 338 348 347 344 344 342 342 341 340 340 339 336 334 331 329 327 325
326 329 333 336 336 333 332 332 332 331 332 338 341 346 346 345 344 341 339 348 349 337 350 353 341 327 325 348 345 344 343 343 342 342 342 341 340 337 335 332 330 329 327 325
326 328 332 336 338 337 333 334 332 333 337 340 345 348 345 342 343 344 344 331 322 331 345 344 333 321 325 347 341 341 343 344 343 343 341 323 338 336 334 332 330 330 327 321
327 327 328 332 334 335 337 336 334 333 337 343 344 346 347 345 341 342 344 344 321 330 344 324 321 319 338 345 341 344 346 345 343 341 340 338 335 335 334 333 330 328 326 323
326 324 324 328 328 334 335 337 332 333 334 336 338 341 343 342 342 342 342 331 340 329 338 335 330 327 334 339 343 345 343 342 339 340 335 336 336 334 333 331 329 326 324 320
323 315 324 324 325 328 334 334 335 335 333 335 335 341 342 341 339 336 326 337 336 334 336 334 330 325 331 334 335 339 340 341 330 336 335 335 334 332 331 329 326 323 321 318
Wind_Speed
12 8 8 14 17 20 21 19 17 12 11 11 3 3 12 7 5 11 16 22 21 20 19 17 17 17 16 16 13 12 9 11 12 12 11 10 10 9 9 9 9 8 8 7
11 6 7 11 17 19 18 19 16 17 16 13 8 4 6 9 9 13 18 22 21 18 18 20 20 18 16 15 13 11 10 11 10 11 11 10 10 10 9 10 9 8 7 7
12 15 10 12 13 15 11 11 13 15 13 16 6 7 6 5 10 14 20 20 20 20 20 21 19 17 18 16 14 13 11 10 11 12 11 11 11 10 10 11 10 8 8 9
11 15 15 11 14 13 14 13 13 14 15 10 4 6 11 7 7 13 18 21 17 19 20 20 20 20 15 16 14 13 12 12 12 12 11 11 12 12 10 10 9 9 8 7
13 10 10 17 8 8 11 12 15 18 13 6 9 13 4 4 5 9 17 19 18 19 19 16 17 16 15 16 15 14 13 12 12 12 12 12 13 13 12 11 9 8 8 9
11 13 16 13 10 9 1 8 9 8 7 7 10 11 10 4 3 6 12 15 17 18 17 19 18 19 18 17 16 16 15 15 15 13 12 13 13 12 11 10 11 11 10 9
14 10 15 19 8 6 11 6 6 6 5 6 8 8 2 6 2 4 6 12 13 15 16 18 18 20 19 19 19 18 17 16 15 14 13 12 11 11 11 11 10 9 10 8
13 18 16 13 13 10 7 9 5 4 5 7 7 7 2 1 0 5 6 8 12 12 14 18 18 19 18 17 16 15 17 17 16 14 13 11 13 11 10 10 10 9 10 9
15 10 11 3 12 10 6 8 4 1 4 5 8 6 3 3 3 5 8 8 10 10 12 15 17 17 19 17 17 15 16 15 15 15 13 13 13 12 10 10 10 10 9 8
13 11 9 10 9 9 6 6 2 2 3 5 6 5 3 2 4 5 7 9 10 11 11 13 12 12 9 11 12 14 14 14 13 14 14 14 12 12 10 10 10 9 9 8
8 8 8 7 8 7 4 3 2 3 4 5 5 4 4 4 3 4 5 8 8 9 9 11 12 12 13 11 11 13 14 16 14 12 14 10 10 5 7 9 3 7 9 8
8 17 8 12 7 3 2 3 4 4 4 4 6 5 3 3 4 4 4 6 7 8 10 12 13 13 13 11 11 13 15 12 14 13 14 12 11 12 19 11 11 18 19 11
10 12 12 10 8 5 4 4 6 3 3 5 6 6 2 4 5 4 6 5 7 10 10 11 13 13 13 12 9 9 11 12 8 9 12 12 12 11 11 9 19 18 17 13
14 8 7 6 7 4 3 4 3 3 5 6 6 5 3 5 6 7 7 8 9 11 12 13 12 13 12 13 12 12 9 6 8 6 8 9 9 8 9 9 10 8 10 11
5 1 2 2 1 3 6 6 5 7 5 5 5 5 4 5 6 7 5 7 9 9 9 10 12 13 12 12 14 14 9 6 4 4 3 7 7 9 9 9 9 9 10 8
3 1 0 4 6 7 9 9 8 6 7 6 6 6 5 5 5 5 7 7 7 8 9 10 11 11 12 15 14 7 8 12 10 10 12 11 10 11 10 11 11 9 9 10
9 9 9 11 10 10 9 9 8 9 9 8 7 6 6 3 4 5 6 8 8 8 10 10 10 11 12 15 14 9 6 9 15 11 10 9 9 10 12 10 11 10 10 12
14 14 15 16 14 15 14 13 12 11 10 10 9 7 6 4 3 4 7 7 10 10 10 12 12 13 14 17 14 10 9 9 10 8 9 10 12 11 11 11 10 10 9 7
11 12 13 15 16 16 16 16 15 13 11 9 10 10 7 6 4 4 7 10 10 12 11 11 14 14 15 14 13 12 12 11 10 10 12 12 10 11 10 10 11 11 10 9
9 12 13 15 16 14 14 13 14 13 12 11 10 10 9 7 5 5 7 10 11 10 12 12 16 15 15 15 15 11 10 13 14 13 10 10 10 11 11 11 12 11 11 10
11 10 9 12 13 12 11 10 11 12 12 11 9 10 9 8 5 6 8 8 10 12 9 16 15 13 13 13 11 11 11 12 11 12 12 13 12 12 12 12 12 11 11 11
8 11 15 7 9 10 10 11 11 11 12 11 10 9 9 9 7 6 8 9 5 13 9 10 12 18 14 18 14 15 13 13 11 13 13 12 12 12 12 12 12 11 11 11
9 9 8 13 7 7 9 10 10 12 13 10 10 10 9 8 7 8 8 11 8 3 7 10 11 7 10 13 12 15 14 14 14 13 12 12 13 13 13 13 12 12 12 10
10 10 11 6 11 8 8 9 10 10 10 11 11 8 7 7 7 7 5 6 3 10 9 7 8 10 13 8 10 12 10 13 14 13 14 16 12 13 13 13 13 12 11 11
11 10 10 7 7 7 6 7 9 12 9 9 7 8 10 8 8 4 5 4 10 8 9 6 14 15 13 10 12 11 12 10 13 12 13 12 12 13 13 13 13 12 12 12
11 9 7 6 7 6 7 7 6 8 8 9 9 7 6 6 5 4 4 3 5 8 9 7 8 8 10 11 10 7 10 8 7 10 12 13 14 12 13 12 13 12 12 12
10 8 9 6 8 6 5 5 9 9 8 8 8 4 6 7 5 4 1 4 6 7 8 7 5 7 3 5 10 12 12 12 11 10 11 12 12 11 12 12 12 11 11 11
Wind_Direction
287 286 297 207 203 226 238 258 273 253 246 273 286 330 356 71 151 156 186 179 188 191 181 183 162 158 172 192 193 175 192 194 178 177 182 184 196 199 197 191 194 206 196 196
291 233 247 257 210 212 220 234 257 276 286 305 321 316 296 300 198 192 189 189 191 199 175 178 171 169 180 189 179 171 189 191 171 170 176 181 190 193 190 188 193 188 190 194
242 240 218 240 222 235 223 215 242 255 251 251 249 5 317 247 209 199 183 202 190 195 186 184 181 171 182 184 178 176 177 182 173 175 178 183 186 184 188 194 181 183 176 186
242 230 218 246 216 207 220 224 244 238 265 293 27 296 268 204 218 204 193 199 191 194 202 182 192 181 177 180 181 175 178 179 172 171 176 184 183 182 183 190 174 169 178 168
249 219 215 235 148 210 228 247 259 260 245 19 338 309 123 356 301 236 200 195 193 196 204 177 184 166 176 179 177 174 176 178 175 183 184 181 185 183 179 181 162 153 179 156
255 239 250 224 186 97 53 242 55 16 10 352 320 285 71 30 340 275 185 192 190 188 205 171 177 166 172 174 178 176 176 175 175 183 187 180 182 173 183 173 164 175 154 158
234 256 250 83 15 157 215 75 56 28 9 328 308 359 248 305 89 253 242 176 183 192 196 164 173 164 174 178 180 181 175 171 174 175 177 179 174 175 173 183 149 144 140 137
249 250 238 143 172 222 88 104 61 32 356 322 307 286 166 318 202 183 207 170 186 190 186 161 171 159 179 178 172 175 168 169 166 168 172 161 176 171 174 154 139 140 145 152
237 247 117 106 78 91 77 105 105 88 349 329 303 278 188 96 156 159 167 170 185 177 176 167 167 169 183 168 162 164 167 165 163 163 172 154 160 163 158 158 157 166 172 162
221 119 121 103 105 94 77 88 80 66 351 329 316 277 216 140 149 155 146 160 164 167 173 165 154 169 166 163 164 161 164 159 165 170 152 153 163 163 163 181 175 180 181 176
123 84 113 140 83 80 80 56 44 17 338 344 320 292 234 171 173 134 140 137 141 161 168 154 151 157 137 159 168 173 165 167 167 155 162 131 66 25 144 65 354 202 185 177
245 163 201 122 99 93 66 47 36 351 325 338 331 306 247 187 165 164 148 126 137 147 151 152 152 152 150 163 172 177 169 171 174 161 151 136 137 94 47 58 60 60 56 91
89 62 89 114 104 63 62 37 24 336 337 315 331 323 230 194 193 149 156 151 144 141 143 152 157 160 162 175 150 184 180 172 168 184 152 160 148 138 127 75 63 55 68 72
100 121 150 169 125 54 21 17 331 330 360 326 354 327 264 201 145 200 171 152 141 135 139 150 158 172 174 179 186 193 184 138 141 127 149 158 151 150 146 159 146 121 59 97
130 246 22 64 287 257 329 331 331 326 349 349 345 351 298 232 207 212 203 186 181 184 169 174 180 193 173 190 162 160 146 138 142 94 241 135 175 143 169 158 155 141 134 126
209 271 31 263 281 287 285 285 288 295 312 328 346 346 332 288 252 225 220 204 180 192 184 173 165 151 170 143 152 152 156 168 176 173 183 177 161 176 166 175 168 159 168 154
282 270 267 265 265 268 278 286 286 291 294 300 311 332 322 305 242 237 217 191 194 205 191 179 160 148 166 150 148 163 183 180 189 206 167 149 178 189 170 186 172 167 181 158
264 268 269 271 270 272 270 267 265 278 278 286 297 295 293 293 271 221 224 233 189 215 210 179 169 156 167 164 173 178 217 205 187 212 167 177 201 201 189 180 169 176 153 127
288 283 272 266 268 267 266 264 263 262 271 270 277 278 284 287 281 235 215 226 220 220 214 208 152 177 168 173 176 193 180 180 195 207 189 193 184 197 182 186 183 178 165 164
291 286 279 276 274 263 265 266 266 263 257 250 256 263 268 269 260 241 229 227 228 227 215 176 167 197 183 171 199 204 196 179 193 210 195 187 194 198 190 196 183 180 166 178
319 302 286 278 270 265 261 262 262 258 251 248 242 254 264 270 246 247 242 237 222 222 222 153 177 196 186 191 200 231 199 183 195 203 191 198 189 199 191 187 188 181 178 190
355 338 327 293 271 261 250 251 251 251 253 240 237 239 245 249 240 215 250 278 257 165 158 184 187 199 195 174 200 213 219 189 200 202 194 191 189 192 189 186 189 185 191 188
352 340 327 321 311 275 262 253 242 233 230 235 245 245 236 246 236 224 220 189 244 196 234 190 196 196 152 177 201 213 213 195 209 205 184 199 196 191 185 186 190 187 189 185
335 334 324 349 315 295 276 263 256 236 224 239 240 230 231 231 226 233 249 119 128 153 221 217 160 157 172 189 211 219 205 193 199 199 198 203 185 191 187 184 192 185 182 181
319 317 307 334 307 288 248 248 237 248 220 231 235 218 239 241 264 263 204 187 136 190 220 200 169 169 189 196 226 219 207 187 198 193 198 191 193 192 184 187 186 182 184 179
295 299 315 305 302 300 297 291 229 241 215 220 224 202 251 243 229 219 229 251 240 206 244 182 191 193 203 206 206 198 205 188 183 210 196 185 195 189 185 181 183 181 183 180
280 275 274 315 294 298 302 315 309 284 250 252 265 192 218 249 227 252 139 241 225 211 210 183 168 175 249 244 200 185 204 205 199 178 187 191 178 188 187 185 182 180 182 184